| time (UTC) | temp F | wind direction | speed MPH | gust MPH | rain 1hr in | rain 24hr in | rain mn in | humidity % | barometer mb |
| 20260904174505 | 76 | 9 | 2.0 | 8.0 | 0.00 | 0.01 | 0.01 | 60 | 1010.1 |
| 20260904173010 | 77 | 328 | 4.0 | 15.0 | 0.00 | 0.01 | 0.01 | 62 | 1010.1 |
| 20260904171506 | 75 | 303 | 1.0 | 9.0 | 0.00 | 0.01 | 0.01 | 64 | 1010.4 |
| 20260904170007 | 77 | 107 | 3.0 | 10.0 | 0.00 | 0.01 | 0.01 | 60 | 1010.2 |
| 20260904164507 | 78 | 288 | 2.0 | 8.0 | 0.00 | 0.01 | 0.01 | 59 | 1010.2 |
| 20260904163003 | 75 | 208 | 1.0 | 8.0 | 0.00 | 0.01 | 0.01 | 64 | 1010.5 |
| 20260904161506 | 75 | 264 | 0.0 | 3.0 | 0.00 | 0.01 | 0.01 | 64 | 1010.7 |
| 20260904160007 | 76 | 220 | 1.0 | 7.0 | 0.00 | 0.01 | 0.01 | 62 | 1010.8 |
| 20260904154508 | 77 | 229 | 2.0 | 11.0 | 0.00 | 0.01 | 0.01 | 63 | 1010.8 |
| 20260904153010 | 76 | 352 | 2.0 | 7.0 | 0.00 | 0.01 | 0.01 | 69 | 1011.0 |
| 20260904151509 | 76 | 40 | 3.0 | 9.0 | 0.00 | 0.01 | 0.01 | 62 | 1011.0 |
| 20260904150009 | 75 | 305 | 0.0 | 5.0 | 0.00 | 0.01 | 0.01 | 67 | 1011.0 |
| 20260904144510 | 73 | 352 | 0.0 | 4.0 | 0.00 | 0.01 | 0.01 | 74 | 1010.9 |
| 20260904143019 | 73 | 186 | 1.0 | 2.0 | 0.00 | 0.01 | 0.01 | 78 | 1011.0 |
| 20260904141513 | 72 | 252 | 0.0 | 2.0 | 0.00 | 0.01 | 0.01 | 77 | 1011.1 |
| 20260904140012 | 71 | 117 | 0.0 | 2.0 | 0.00 | 0.01 | 0.01 | 83 | 1011.1 |
| 20260904134512 | 69 | 179 | 1.0 | 4.0 | 0.00 | 0.01 | 0.01 | 90 | 1011.0 |
| 20260904133008 | 66 | 207 | 0.0 | 2.0 | 0.00 | 0.01 | 0.01 | 96 | 1011.2 |
| 20260904131534 | 64 | 105 | 0.0 | 2.0 | 0.00 | 0.01 | 0.01 | 98 | 1011.1 |
| 20260904130012 | 63 | 154 | 0.0 | 2.0 | 0.00 | 0.01 | 0.01 | 98 | 1011.2 |
| 20260904124508 | 61 | 69 | 0.0 | 2.0 | 0.00 | 0.01 | 0.01 | 98 | 1011.2 |
| 20260904123012 | 60 | 304 | 0.0 | 2.0 | 0.00 | 0.01 | 0.01 | 98 | 1011.2 |
| 20260904121513 | 60 | 82 | 0.0 | 0.0 | 0.00 | 0.01 | 0.01 | 98 | 1011.2 |
| 20260904120020 | 59 | 61 | 0.0 | 0.0 | 0.00 | 0.01 | 0.01 | 98 | 1011.1 |
| 20260904114515 | 59 | 60 | 0.0 | 0.0 | 0.00 | 0.01 | 0.01 | 98 | 1011.1 |
| 20260904113033 | 58 | 101 | 0.0 | 0.0 | 0.00 | 0.01 | 0.01 | 98 | 1011.0 |
| 20260904111515 | 58 | 329 | 0.0 | 0.0 | 0.00 | 0.01 | 0.01 | 98 | 1010.9 |
| 20260904110018 | 58 | 329 | 0.0 | 0.0 | 0.00 | 0.01 | 0.01 | 98 | 1010.8 |
| 20260904104517 | 57 | 32 | 0.0 | 0.0 | 0.00 | 0.01 | 0.01 | 98 | 1010.7 |
| 20260904103018 | 57 | 32 | 0.0 | 0.0 | 0.00 | 0.01 | 0.01 | 97 | 1010.7 |
| 20260904101520 | 57 | 32 | 0.0 | 0.0 | 0.00 | 0.01 | 0.01 | 97 | 1010.6 |
| 20260904100019 | 57 | 32 | 0.0 | 0.0 | 0.00 | 0.01 | 0.01 | 97 | 1010.6 |
| 20260904094529 | 58 | 32 | 0.0 | 0.0 | 0.01 | 0.01 | 0.01 | 98 | 1010.4 |
| 20260904093021 | 58 | 32 | 0.0 | 0.0 | 0.01 | 0.01 | 0.01 | 98 | 1010.6 |
| 20260904091520 | 57 | 32 | 0.0 | 0.0 | 0.01 | 0.01 | 0.01 | 98 | 1010.6 |
| 20260904090020 | 57 | 32 | 0.0 | 0.0 | 0.01 | 0.01 | 0.01 | 97 | 1010.5 |
| 20260904084524 | 57 | 32 | 0.0 | 0.0 | 0.00 | 0.00 | 0.00 | 97 | 1010.6 |
| 20260904083036 | 57 | 32 | 0.0 | 0.0 | 0.00 | 0.00 | 0.00 | 97 | 1010.5 |
| 20260904081510 | 57 | 32 | 0.0 | 0.0 | 0.00 | 0.00 | 0.00 | 97 | 1010.4 |
| 20260904080023 | 57 | 32 | 0.0 | 0.0 | 0.00 | 0.00 | 0.00 | 96 | 1010.3 |
| 20260904074523 | 58 | 32 | 0.0 | 0.0 | 0.00 | 0.00 | 0.00 | 97 | 1010.4 |
| 20260904073006 | 59 | 32 | 0.0 | 0.0 | 0.00 | 0.00 | 0.00 | 97 | 1010.4 |
| 20260904071509 | 59 | 32 | 0.0 | 0.0 | 0.00 | 0.00 | 0.00 | 97 | 1010.6 |
| 20260904070014 | 59 | 32 | 0.0 | 0.0 | 0.00 | 0.00 | 0.00 | 97 | 1010.7 |
| 20260904064523 | 59 | 32 | 0.0 | 0.0 | 0.00 | 0.00 | 0.00 | 97 | 1010.8 |
| 20260904063003 | 59 | 32 | 0.0 | 0.0 | 0.00 | 0.00 | 0.00 | 97 | 1010.8 |
| 20260904061508 | 59 | 32 | 0.0 | 0.0 | 0.00 | 0.01 | 0.00 | 97 | 1011.0 |
| 20260904060016 | 58 | 32 | 0.0 | 0.0 | 0.00 | 0.02 | 0.00 | 97 | 1011.0 |
| 20260904054536 | 58 | 32 | 0.0 | 0.0 | 0.00 | 0.03 | 0.00 | 97 | 1011.1 |
| 20260904053038 | 58 | 32 | 0.0 | 0.0 | 0.00 | 0.03 | 0.00 | 96 | 1011.4 |
| 20260904051510 | 59 | 32 | 0.0 | 0.0 | 0.00 | 0.03 | 0.00 | 96 | 1011.5 |
| 20260904050024 | 59 | 32 | 0.0 | 0.0 | 0.00 | 0.03 | 0.00 | 96 | 1011.6 |
| 20260904044515 | 59 | 32 | 0.0 | 0.0 | 0.00 | 0.03 | 0.00 | 96 | 1011.6 |
| 20260904043038 | 60 | 32 | 0.0 | 0.0 | 0.00 | 0.03 | 0.00 | 96 | 1011.7 |
| 20260904041529 | 60 | 32 | 0.0 | 0.0 | 0.00 | 0.03 | 0.00 | 97 | 1011.7 |
| 20260904040010 | 60 | 40 | 0.0 | 0.0 | 0.00 | 0.03 | 0.00 | 97 | 1011.8 |
| 20260904034510 | 60 | 40 | 0.0 | 2.0 | 0.00 | 0.03 | 0.03 | 96 | 1011.9 |
| 20260904033024 | 60 | 40 | 0.0 | 0.0 | 0.00 | 0.03 | 0.03 | 96 | 1011.9 |
| 20260904031528 | 61 | 40 | 0.0 | 1.0 | 0.00 | 0.03 | 0.03 | 96 | 1012.1 |
| 20260904030031 | 61 | 40 | 0.0 | 2.0 | 0.00 | 0.03 | 0.03 | 96 | 1012.1 |
| 20260904024510 | 61 | 319 | 0.0 | 0.0 | 0.00 | 0.03 | 0.03 | 96 | 1012.3 |
| 20260904023016 | 62 | 319 | 0.0 | 0.0 | 0.00 | 0.03 | 0.03 | 96 | 1012.2 |
| 20260904021523 | 62 | 319 | 0.0 | 0.0 | 0.00 | 0.03 | 0.03 | 96 | 1012.1 |
| 20260904020028 | 63 | 319 | 0.0 | 0.0 | 0.00 | 0.03 | 0.03 | 95 | 1012.3 |
| 20260904014553 | 63 | 319 | 0.0 | 2.0 | 0.00 | 0.03 | 0.03 | 95 | 1012.3 |
| 20260904013015 | 64 | 319 | 0.0 | 2.0 | 0.00 | 0.03 | 0.03 | 95 | 1012.4 |
| 20260904011518 | 64 | 319 | 0.0 | 2.0 | 0.00 | 0.03 | 0.03 | 95 | 1012.3 |
| 20260904010025 | 65 | 319 | 0.0 | 2.0 | 0.00 | 0.03 | 0.03 | 95 | 1012.2 |
| 20260904004504 | 65 | 319 | 0.0 | 1.0 | 0.00 | 0.03 | 0.03 | 94 | 1012.2 |
| 20260904003009 | 66 | 319 | 0.0 | 2.0 | 0.00 | 0.03 | 0.03 | 95 | 1011.8 |
| 20260904001515 | 66 | 292 | 0.0 | 2.0 | 0.00 | 0.03 | 0.03 | 94 | 1011.7 |
| 20260904000024 | 67 | 248 | 0.0 | 0.0 | 0.00 | 0.03 | 0.03 | 93 | 1011.5 |
| 20260903234534 | 67 | 248 | 0.0 | 2.0 | 0.00 | 0.03 | 0.03 | 93 | 1011.3 |
| 20260903233024 | 68 | 248 | 0.0 | 1.0 | 0.00 | 0.03 | 0.03 | 93 | 1011.2 |
| 20260903231512 | 68 | 277 | 0.0 | 2.0 | 0.00 | 0.03 | 0.03 | 92 | 1011.3 |
| 20260903230028 | 69 | 331 | 0.0 | 2.0 | 0.00 | 0.03 | 0.03 | 92 | 1011.3 |
| 20260903224527 | 70 | 337 | 0.0 | 2.0 | 0.00 | 0.03 | 0.03 | 90 | 1011.3 |
| 20260903223029 | 71 | 310 | 0.0 | 2.0 | 0.00 | 0.03 | 0.03 | 87 | 1011.3 |
| 20260903221510 | 74 | 310 | 0.0 | 2.0 | 0.00 | 0.03 | 0.03 | 83 | 1011.4 |
| 20260903220017 | 75 | 265 | 0.0 | 2.0 | 0.00 | 0.03 | 0.03 | 82 | 1011.8 |
| 20260903214536 | 77 | 352 | 0.0 | 2.0 | 0.00 | 0.03 | 0.03 | 79 | 1011.9 |
| 20260903213028 | 77 | 306 | 0.0 | 2.0 | 0.00 | 0.03 | 0.03 | 76 | 1011.8 |
| 20260903211507 | 77 | 352 | 0.0 | 2.0 | 0.00 | 0.03 | 0.03 | 78 | 1011.8 |
| 20260903210018 | 76 | 217 | 1.0 | 4.0 | 0.00 | 0.03 | 0.03 | 79 | 1011.7 |
| 20260903204517 | 77 | 246 | 0.0 | 3.0 | 0.00 | 0.03 | 0.03 | 76 | 1011.8 |
| 20260903203031 | 76 | 321 | 0.0 | 2.0 | 0.00 | 0.03 | 0.03 | 79 | 1011.8 |
| 20260903201530 | 74 | 61 | 0.0 | 2.0 | 0.00 | 0.03 | 0.03 | 82 | 1011.8 |
| 20260903200011 | 75 | 319 | 0.0 | 2.0 | 0.00 | 0.03 | 0.03 | 83 | 1012.0 |
| 20260903194514 | 74 | 113 | 0.0 | 2.0 | 0.00 | 0.03 | 0.03 | 81 | 1012.2 |
| 20260903193023 | 75 | 288 | 1.0 | 3.0 | 0.00 | 0.03 | 0.03 | 80 | 1012.2 |
| 20260903191530 | 74 | 293 | 1.0 | 3.0 | 0.00 | 0.03 | 0.03 | 81 | 1012.3 |
| 20260903190033 | 73 | 9 | 0.0 | 2.0 | 0.00 | 0.03 | 0.03 | 83 | 1012.3 |
| 20260903184515 | 73 | 76 | 0.0 | 3.0 | 0.00 | 0.03 | 0.03 | 83 | 1012.4 |
| 20260903183021 | 71 | 183 | 0.0 | 4.0 | 0.00 | 0.03 | 0.03 | 87 | 1012.7 |
| 20260903181526 | 69 | 207 | 0.0 | 2.0 | 0.00 | 0.03 | 0.03 | 87 | 1012.9 |
| 20260903180036 | 68 | 144 | 0.0 | 2.0 | 0.00 | 0.03 | 0.03 | 88 | 1013.1 |